Seattle Boeing, WA
on Monday, January 28, 2013

Monday
Previous Day Next Day
Daily Summary
 ActualAverage (KSEA)Record (KSEA)
Temperature
Mean Temperature °F 43°F  
Max Temperature 45°F 48°F 57°F (1976)
Min Temperature 39°F 37°F 7°F (1950)
Degree Days
Heating Degree Days 23 22  
Month to date heating degree days 644  
Since 1 July heating degree days 2582  
Cooling Degree Days 0 0  
Month to date cooling degree days 0  
Year to date cooling degree days 0  
Moisture
Dew Point 38°F   
Average Humidity 84    
Maximum Humidity 89    
Minimum Humidity 76    
Precipitation
Precipitation 0.21 in 0.16 in 1.23 in (1960)
Month to date precipitation 5.10  
Year to date precipitation 5.10  
Snow
Snow 0.00 in in 3.10 in (1996)
Month to date snowfall  
Since 1 July snowfall  
Snow Depth in   
Wind
Wind Speed 6 mph   
Max Wind Speed 9 mph   
Max Gust Speed mph   
Visibility 10 miles   
Events Rain   

Key: T is trace of precipitation, MM is missing value
Source: NWS Daily Summary
Time(PST)TemperatureDew PointHumidity Pressure Visibility Wind DirectionWind SpeedGust SpeedPrecipitationEvents Conditions
12:53 AM 41.0°F 37.9°F 89% 30.01 in 9.0 miles SE 5.8 mph - N/A   Overcast
1:53 AM 41.0°F 37.9°F 89% 30.03 in 9.0 miles ESE 4.6 mph - N/A   Overcast
2:53 AM 41.0°F 37.0°F 86% 30.04 in 10.0 miles SE 4.6 mph - N/A   Overcast
3:37 AM 41.0°F 37.4°F 87% 30.04 in 10.0 miles SE 8.1 mph - N/A   Scattered Clouds
3:53 AM 39.9°F 36.0°F 86% 30.04 in 10.0 miles SE 9.2 mph - N/A   Partly Cloudy
4:53 AM 39.9°F 36.0°F 86% 30.05 in 10.0 miles SE 8.1 mph - N/A   Clear
5:53 AM 39.9°F 36.0°F 86% 30.05 in 10.0 miles SE 5.8 mph - N/A   Partly Cloudy
6:53 AM 39.9°F 37.0°F 89% 30.06 in 10.0 miles SE 6.9 mph - N/A   Overcast
7:53 AM 41.0°F 37.0°F 86% 30.07 in 10.0 miles ESE 4.6 mph - N/A   Overcast
9:53 AM 42.1°F 37.0°F 82% 30.07 in 10.0 miles SSE 4.6 mph - N/A   Overcast
10:53 AM 43.0°F 37.9°F 82% 30.07 in 10.0 miles Calm Calm - N/A   Overcast
11:53 AM 43.0°F 36.0°F 76% 30.07 in 10.0 miles SSW 4.6 mph - N/A   Overcast
12:53 PM 44.1°F 37.0°F 76% 30.06 in 10.0 miles South 3.5 mph - 0.01 in Rain Light Rain
1:37 PM 44.6°F 37.4°F 76% 30.05 in 10.0 miles SSE 4.6 mph - 0.01 in Rain Light Rain
1:53 PM 44.1°F 39.0°F 82% 30.04 in 10.0 miles SE 4.6 mph - 0.01 in Rain Light Rain
2:53 PM 45.0°F 39.0°F 80% 30.02 in 10.0 miles South 4.6 mph - 0.03 in Rain Light Rain
3:53 PM 45.0°F 39.9°F 82% 30.03 in 8.0 miles SSE 4.6 mph - 0.02 in Rain Light Rain
4:53 PM 45.0°F 39.9°F 82% 30.03 in 10.0 miles Variable 3.5 mph - 0.03 in Rain Light Rain
5:53 PM 44.1°F 39.0°F 82% 30.04 in 10.0 miles SE 4.6 mph - 0.02 in Rain Light Rain
6:53 PM 44.1°F 39.9°F 85% 30.04 in 10.0 miles SSE 6.9 mph - 0.03 in Rain Light Rain
7:53 PM 44.1°F 39.0°F 82% 30.05 in 10.0 miles SE 8.1 mph - 0.00 in Rain Light Rain
8:53 PM 44.1°F 39.0°F 82% 30.06 in 10.0 miles SSE 6.9 mph - 0.02 in Rain Light Rain
9:53 PM 44.1°F 39.0°F 82% 30.06 in 10.0 miles SE 5.8 mph - 0.01 in Rain Light Rain
10:53 PM 43.0°F 39.9°F 89% 30.08 in 10.0 miles SE 6.9 mph - 0.01 in Rain Light Rain
11:53 PM 43.0°F 39.9°F 89% 30.10 in 10.0 miles SE 9.2 mph - 0.02 in Rain Light Rain
Moon Phase
Jan. 28 Feb. 03 Feb. 10 Feb. 17 Feb. 25
Sunrise:07:40 AM (PST) Moon Rise:07:17 PM (PST)
Sunset:05:05 PM (PST) Moon Set:07:57 AM (PST)

Copyright © 2014 The Weather Underground, Inc.